Time,TemperatureF,DewpointF,PressureIn,WindDirection,WindDirectionDegrees,WindSpeedMPH,WindSpeedGustMPH,Humidity,HourlyPrecipIn,Conditions,Clouds,dailyrainin,SoftwareType,DateUTC
2013-02-21 00:00:00,29.6,27.0,30.11,WNW,292,0.0,2.0,90,0.00,,,-99.99,WeatherLink 5.9.2,2013-02-21 05:00:00,
2013-02-21 00:01:00,30.4,27.3,29.95,WNW,297,0.0,0.0,88,0.00,,,0.00,Wunderground v.1.15,2013-02-21 05:01:00,
2013-02-21 00:11:00,30.1,27.0,29.94,WNW,297,0.0,0.0,88,0.00,,,0.00,Wunderground v.1.15,2013-02-21 05:11:00,
2013-02-21 00:15:00,29.9,26.8,29.95,WNW,297,0.0,0.0,88,0.00,,,0.00,Wunderground v.1.15,2013-02-21 05:15:00,
2013-02-21 00:26:00,29.7,26.6,29.94,WNW,297,0.0,0.0,88,0.00,,,0.00,Wunderground v.1.15,2013-02-21 05:26:00,
2013-02-21 00:30:00,29.2,26.4,30.12,North,-999,0.0,0.0,89,0.00,,,-99.99,WeatherLink 5.9.2,2013-02-21 05:30:00,
2013-02-21 00:35:00,29.6,26.5,29.94,WNW,297,0.0,0.0,88,0.00,,,0.00,Wunderground v.1.15,2013-02-21 05:35:00,
2013-02-21 00:40:00,29.5,26.7,29.94,WNW,297,2.0,2.0,89,0.00,,,0.00,Wunderground v.1.15,2013-02-21 05:40:00,
2013-02-21 00:51:00,29.6,26.8,29.94,WNW,297,0.0,0.0,89,0.00,,,0.00,Wunderground v.1.15,2013-02-21 05:51:00,
2013-02-21 01:00:00,29.6,26.8,29.95,WNW,297,0.0,0.0,89,0.00,,,0.00,Wunderground v.1.15,2013-02-21 06:00:00,
2013-02-21 01:10:00,29.4,26.6,29.96,WNW,297,0.0,0.0,89,0.00,,,0.00,Wunderground v.1.15,2013-02-21 06:10:00,
2013-02-21 01:16:00,29.3,26.5,29.96,WNW,297,0.0,0.0,89,0.00,,,0.00,Wunderground v.1.15,2013-02-21 06:16:00,
2013-02-21 01:25:00,29.0,26.2,29.96,WNW,297,0.0,0.0,89,0.00,,,0.00,Wunderground v.1.15,2013-02-21 06:25:00,
2013-02-21 01:30:00,28.2,25.6,30.12,North,-999,0.0,0.0,90,0.00,,,-99.99,WeatherLink 5.9.2,2013-02-21 06:30:00,
2013-02-21 01:36:00,28.9,26.1,29.97,WNW,297,0.0,0.0,89,0.00,,,0.00,Wunderground v.1.15,2013-02-21 06:36:00,
2013-02-21 01:46:00,28.8,26.2,29.96,WNW,297,0.0,0.0,90,0.00,,,0.00,Wunderground v.1.15,2013-02-21 06:46:00,
2013-02-21 01:55:00,28.6,26.0,29.96,WNW,297,0.0,0.0,90,0.00,,,0.00,Wunderground v.1.15,2013-02-21 06:55:00,
2013-02-21 02:00:00,27.6,25.1,30.11,North,-999,0.0,0.0,90,0.00,,,-99.99,WeatherLink 5.9.2,2013-02-21 07:00:00,
2013-02-21 02:01:00,28.4,25.8,29.96,WNW,297,0.0,0.0,90,0.00,,,0.00,Wunderground v.1.15,2013-02-21 07:01:00,
2013-02-21 02:11:00,28.1,25.5,29.96,WNW,297,0.0,0.0,90,0.00,,,0.00,Wunderground v.1.15,2013-02-21 07:11:00,
2013-02-21 02:20:00,28.1,25.5,29.96,WNW,297,0.0,0.0,90,0.00,,,0.00,Wunderground v.1.15,2013-02-21 07:20:00,
2013-02-21 02:26:00,28.0,25.4,29.96,WNW,297,0.0,0.0,90,0.00,,,0.00,Wunderground v.1.15,2013-02-21 07:26:00,
2013-02-21 02:30:00,27.0,24.5,30.12,North,-999,0.0,0.0,90,0.00,,,-99.99,WeatherLink 5.9.2,2013-02-21 07:30:00,
2013-02-21 02:35:00,28.0,25.4,29.96,WNW,297,0.0,0.0,90,0.00,,,0.00,Wunderground v.1.15,2013-02-21 07:35:00,
2013-02-21 02:40:00,27.8,25.2,29.97,WNW,297,0.0,0.0,90,0.00,,,0.00,Wunderground v.1.15,2013-02-21 07:40:00,
2013-02-21 02:50:00,27.5,25.0,29.96,WNW,297,0.0,0.0,90,0.00,,,0.00,Wunderground v.1.15,2013-02-21 07:50:00,
2013-02-21 02:55:00,27.4,24.9,29.96,WNW,297,0.0,0.0,90,0.00,,,0.00,Wunderground v.1.15,2013-02-21 07:55:00,
2013-02-21 03:00:00,26.6,23.8,30.12,North,-999,0.0,0.0,89,0.00,,,-99.99,WeatherLink 5.9.2,2013-02-21 08:00:00,
2013-02-21 03:06:00,27.3,24.8,29.96,WNW,297,0.0,0.0,90,0.00,,,0.00,Wunderground v.1.15,2013-02-21 08:06:00,
2013-02-21 03:16:00,27.1,24.3,29.96,WNW,297,0.0,0.0,89,0.00,,,0.00,Wunderground v.1.15,2013-02-21 08:16:00,
2013-02-21 03:21:00,26.9,24.4,29.96,WNW,297,0.0,0.0,90,0.00,,,0.00,Wunderground v.1.15,2013-02-21 08:21:00,
2013-02-21 03:30:00,26.9,24.4,29.96,WNW,297,0.0,0.0,90,0.00,,,0.00,Wunderground v.1.15,2013-02-21 08:30:00,
2013-02-21 03:36:00,26.7,24.2,29.96,WNW,297,0.0,0.0,90,0.00,,,0.00,Wunderground v.1.15,2013-02-21 08:36:00,
2013-02-21 03:46:00,26.7,24.2,29.97,WNW,297,0.0,0.0,90,0.00,,,0.00,Wunderground v.1.15,2013-02-21 08:46:00,
2013-02-21 03:55:00,26.4,23.9,29.97,WNW,297,0.0,0.0,90,0.00,,,0.00,Wunderground v.1.15,2013-02-21 08:55:00,
2013-02-21 04:00:00,25.8,23.3,30.15,North,-999,0.0,0.0,90,0.00,,,-99.99,WeatherLink 5.9.2,2013-02-21 09:00:00,
2013-02-21 04:01:00,26.3,23.8,29.97,WNW,297,0.0,0.0,90,0.00,,,0.00,Wunderground v.1.15,2013-02-21 09:01:00,
2013-02-21 04:11:00,26.2,23.4,29.97,WNW,297,0.0,0.0,89,0.00,,,0.00,Wunderground v.1.15,2013-02-21 09:11:00,
2013-02-21 04:20:00,26.1,23.3,29.98,WNW,297,0.0,0.0,89,0.00,,,0.00,Wunderground v.1.15,2013-02-21 09:20:00,
2013-02-21 04:30:00,25.5,22.7,30.16,North,-999,0.0,0.0,89,0.00,,,-99.99,WeatherLink 5.9.2,2013-02-21 09:30:00,
2013-02-21 04:31:00,25.9,23.1,29.99,WNW,297,0.0,0.0,89,0.00,,,0.00,Wunderground v.1.15,2013-02-21 09:31:00,
2013-02-21 04:41:00,25.8,22.7,29.99,WNW,297,0.0,0.0,88,0.00,,,0.00,Wunderground v.1.15,2013-02-21 09:41:00,
2013-02-21 04:50:00,25.8,23.0,29.99,WNW,297,0.0,0.0,89,0.00,,,0.00,Wunderground v.1.15,2013-02-21 09:50:00,
2013-02-21 04:55:00,25.7,22.9,29.99,WNW,297,0.0,0.0,89,0.00,,,0.00,Wunderground v.1.15,2013-02-21 09:55:00,
2013-02-21 05:00:00,25.3,22.5,30.17,WNW,292,0.0,1.0,89,0.00,,,-99.99,WeatherLink 5.9.2,2013-02-21 10:00:00,
2013-02-21 05:06:00,25.7,23.2,29.99,WNW,297,0.0,0.0,90,0.00,,,0.00,Wunderground v.1.15,2013-02-21 10:06:00,
2013-02-21 05:11:00,25.7,22.9,29.99,WNW,297,0.0,0.0,89,0.00,,,0.00,Wunderground v.1.15,2013-02-21 10:11:00,
2013-02-21 05:20:00,25.4,22.6,30.00,WNW,297,0.0,0.0,89,0.00,,,0.00,Wunderground v.1.15,2013-02-21 10:20:00,
2013-02-21 05:30:00,25.1,22.3,30.18,North,-999,0.0,0.0,89,0.00,,,-99.99,WeatherLink 5.9.2,2013-02-21 10:30:00,
2013-02-21 05:31:00,25.2,22.4,30.00,WNW,297,0.0,0.0,89,0.00,,,0.00,Wunderground v.1.15,2013-02-21 10:31:00,
2013-02-21 05:40:00,25.5,23.0,30.01,WNW,297,0.0,0.0,90,0.00,,,0.00,Wunderground v.1.15,2013-02-21 10:40:00,
2013-02-21 05:51:00,25.3,22.8,30.01,WNW,297,0.0,0.0,90,0.00,,,0.00,Wunderground v.1.15,2013-02-21 10:51:00,
2013-02-21 06:00:00,25.4,22.6,30.01,WNW,296,0.0,0.0,89,0.00,,,0.00,Wunderground v.1.15,2013-02-21 11:00:00,
2013-02-21 06:10:00,25.2,22.4,30.01,WNW,297,0.0,0.0,89,0.00,,,0.00,Wunderground v.1.15,2013-02-21 11:10:00,
2013-02-21 06:21:00,25.1,22.3,30.02,WNW,297,0.0,0.0,89,0.00,,,0.00,Wunderground v.1.15,2013-02-21 11:21:00,
2013-02-21 06:30:00,26.1,23.8,30.20,North,-999,0.0,0.0,91,0.00,,,-99.99,WeatherLink 5.9.2,2013-02-21 11:30:00,
2013-02-21 06:31:00,25.0,22.5,30.02,WNW,297,0.0,0.0,90,0.00,,,0.00,Wunderground v.1.15,2013-02-21 11:31:00,
2013-02-21 06:41:00,25.0,22.2,30.02,WNW,297,0.0,0.0,89,0.00,,,0.00,Wunderground v.1.15,2013-02-21 11:41:00,
2013-02-21 06:50:00,25.0,22.5,30.02,WNW,297,0.0,0.0,90,0.00,,,0.00,Wunderground v.1.15,2013-02-21 11:50:00,
2013-02-21 07:00:00,29.7,27.7,30.20,North,0,0.0,4.0,92,0.00,,,-99.99,WeatherLink 5.9.2,2013-02-21 12:00:00,
2013-02-21 07:01:00,25.2,22.7,30.03,WNW,297,0.0,0.0,90,0.00,,,0.00,Wunderground v.1.15,2013-02-21 12:01:00,
2013-02-21 07:11:00,25.6,23.1,30.03,WNW,297,0.0,0.0,90,0.00,,,0.00,Wunderground v.1.15,2013-02-21 12:11:00,
2013-02-21 07:20:00,26.1,23.6,30.03,WNW,298,0.0,0.0,90,0.00,,,0.00,Wunderground v.1.15,2013-02-21 12:20:00,
2013-02-21 07:26:00,26.4,23.9,30.04,WNW,298,0.0,0.0,90,0.00,,,0.00,Wunderground v.1.15,2013-02-21 12:26:00,
2013-02-21 07:30:00,34.1,30.4,30.22,North,0,2.0,8.0,86,0.00,,,-99.99,WeatherLink 5.9.2,2013-02-21 12:30:00,
2013-02-21 07:35:00,27.4,25.1,30.04,WNW,298,0.0,0.0,91,0.00,,,0.00,Wunderground v.1.15,2013-02-21 12:35:00,
2013-02-21 07:40:00,28.3,26.0,30.04,WNW,298,0.0,0.0,91,0.00,,,0.00,Wunderground v.1.15,2013-02-21 12:40:00,
2013-02-21 07:51:00,29.9,27.9,30.05,North,352,0.0,0.0,92,0.00,,,0.00,Wunderground v.1.15,2013-02-21 12:51:00,
2013-02-21 08:00:00,31.5,29.4,30.05,North,0,2.0,2.0,92,0.00,,,0.00,Wunderground v.1.15,2013-02-21 13:00:00,
2013-02-21 08:11:00,33.0,30.9,30.05,North,10,0.0,0.0,92,0.00,,,0.00,Wunderground v.1.15,2013-02-21 13:11:00,
2013-02-21 08:21:00,34.2,31.8,30.05,NW,325,3.0,3.0,91,0.00,,,0.00,Wunderground v.1.15,2013-02-21 13:21:00,
2013-02-21 08:30:00,35.4,32.2,30.06,NNE,32,7.0,7.0,88,0.00,,,0.00,Wunderground v.1.15,2013-02-21 13:30:00,
2013-02-21 08:40:00,36.4,31.7,30.06,North,4,5.0,5.0,83,0.00,,,0.00,Wunderground v.1.15,2013-02-21 13:40:00,
2013-02-21 08:46:00,36.9,31.9,30.06,North,6,5.0,5.0,82,0.00,,,0.00,Wunderground v.1.15,2013-02-21 13:46:00,
2013-02-21 08:55:00,37.7,32.1,30.06,NE,42,2.0,2.0,80,0.00,,,0.00,Wunderground v.1.15,2013-02-21 13:55:00,
2013-02-21 09:00:00,41.6,31.8,30.21,North,0,2.0,8.0,68,0.00,,,-99.99,WeatherLink 5.9.2,2013-02-21 14:00:00,
2013-02-21 09:01:00,38.0,32.1,30.06,NNE,14,2.0,2.0,79,0.00,,,0.00,Wunderground v.1.15,2013-02-21 14:01:00,
2013-02-21 09:11:00,38.9,32.3,30.06,NE,34,2.0,2.0,77,0.00,,,0.00,Wunderground v.1.15,2013-02-21 14:11:00,
2013-02-21 09:20:00,39.6,32.7,30.06,North,351,5.0,5.0,76,0.00,,,0.00,Wunderground v.1.15,2013-02-21 14:20:00,
2013-02-21 09:26:00,39.9,32.6,30.06,North,358,3.0,5.0,75,0.00,,,0.00,Wunderground v.1.15,2013-02-21 14:26:00,
2013-02-21 09:30:00,43.4,32.0,30.20,NW,315,3.0,9.0,64,0.00,,,-99.99,WeatherLink 5.9.2,2013-02-21 14:30:00,
2013-02-21 09:35:00,40.6,33.0,30.05,NNE,20,3.0,6.0,74,0.00,,,0.00,Wunderground v.1.15,2013-02-21 14:35:00,
2013-02-21 09:41:00,40.9,32.9,30.06,NNE,31,0.0,0.0,73,0.00,,,0.00,Wunderground v.1.15,2013-02-21 14:41:00,
2013-02-21 09:50:00,41.7,33.3,30.06,NE,41,1.0,1.0,72,0.00,,,0.00,Wunderground v.1.15,2013-02-21 14:50:00,
2013-02-21 10:00:00,45.0,31.5,30.20,NW,315,3.0,11.0,59,0.00,,,-99.99,WeatherLink 5.9.2,2013-02-21 15:00:00,
2013-02-21 10:01:00,42.4,32.9,30.06,NNW,347,1.0,1.0,69,0.00,,,0.00,Wunderground v.1.15,2013-02-21 15:01:00,
2013-02-21 10:10:00,42.9,33.1,30.06,North,358,2.0,2.0,68,0.00,,,0.00,Wunderground v.1.15,2013-02-21 15:10:00,
2013-02-21 10:16:00,43.2,33.0,30.06,NW,325,0.0,2.0,67,0.00,,,0.00,Wunderground v.1.15,2013-02-21 15:16:00,
2013-02-21 10:25:00,43.7,32.7,30.05,NNW,337,5.0,5.0,65,0.00,,,0.00,Wunderground v.1.15,2013-02-21 15:25:00,
2013-02-21 10:30:00,46.2,31.4,30.18,North,0,3.0,10.0,56,0.00,,,-99.99,WeatherLink 5.9.2,2013-02-21 15:30:00,
2013-02-21 10:36:00,44.3,32.9,30.05,NW,325,5.0,5.0,64,0.00,,,0.00,Wunderground v.1.15,2013-02-21 15:36:00,
2013-02-21 10:46:00,44.7,32.9,30.04,NNW,346,1.0,4.0,63,0.00,,,0.00,Wunderground v.1.15,2013-02-21 15:46:00,
2013-02-21 10:55:00,45.3,32.2,30.05,NW,312,5.0,5.0,60,0.00,,,0.00,Wunderground v.1.15,2013-02-21 15:55:00,
2013-02-21 11:00:00,47.6,30.3,30.18,NW,315,4.0,13.0,51,0.00,,,-99.99,WeatherLink 5.9.2,2013-02-21 16:00:00,
2013-02-21 11:01:00,45.4,31.5,30.04,NW,305,4.0,4.0,58,0.00,,,0.00,Wunderground v.1.15,2013-02-21 16:01:00,
2013-02-21 11:11:00,45.8,32.3,30.04,North,0,5.0,5.0,59,0.00,,,0.00,Wunderground v.1.15,2013-02-21 16:11:00,
2013-02-21 11:20:00,46.3,33.2,30.03,NW,311,3.0,3.0,60,0.00,,,0.00,Wunderground v.1.15,2013-02-21 16:20:00,
2013-02-21 11:26:00,46.8,33.6,30.03,North,356,3.0,3.0,60,0.00,,,0.00,Wunderground v.1.15,2013-02-21 16:26:00,
2013-02-21 11:30:00,49.0,31.2,30.17,NW,315,4.0,13.0,50,0.00,,,-99.99,WeatherLink 5.9.2,2013-02-21 16:30:00,
2013-02-21 11:35:00,46.8,32.8,30.03,North,1,0.0,1.0,58,0.00,,,0.00,Wunderground v.1.15,2013-02-21 16:35:00,
2013-02-21 11:40:00,47.1,32.6,30.03,NNW,327,2.0,2.0,57,0.00,,,0.00,Wunderground v.1.15,2013-02-21 16:40:00,
2013-02-21 11:46:00,47.5,32.6,30.02,WNW,302,2.0,2.0,56,0.00,,,0.00,Wunderground v.1.15,2013-02-21 16:46:00,
2013-02-21 11:55:00,47.9,32.9,30.03,WNW,293,9.0,9.0,56,0.00,,,0.00,Wunderground v.1.15,2013-02-21 16:55:00,
2013-02-21 12:00:00,50.4,25.1,30.16,WNW,292,6.0,13.0,37,0.00,,,-99.99,WeatherLink 5.9.2,2013-02-21 17:00:00,
2013-02-21 12:01:00,48.2,31.9,30.02,WNW,297,6.0,6.0,53,0.00,,,0.00,Wunderground v.1.15,2013-02-21 17:01:00,
2013-02-21 12:10:00,48.5,32.1,30.02,NNW,333,5.0,5.0,53,0.00,,,0.00,Wunderground v.1.15,2013-02-21 17:10:00,
2013-02-21 12:21:00,49.1,32.2,30.02,NW,305,0.0,0.0,52,0.00,,,0.00,Wunderground v.1.15,2013-02-21 17:21:00,
2013-02-21 12:30:00,49.3,31.9,30.01,WNW,282,0.0,0.0,51,0.00,,,0.00,Wunderground v.1.15,2013-02-21 17:30:00,
2013-02-21 12:36:00,49.7,31.3,30.02,WNW,290,8.0,8.0,49,0.00,,,0.00,Wunderground v.1.15,2013-02-21 17:36:00,
2013-02-21 12:45:00,50.2,26.8,30.01,NW,324,5.0,9.0,40,0.00,,,0.00,Wunderground v.1.15,2013-02-21 17:45:00,
2013-02-21 12:50:00,50.5,25.8,30.01,NW,308,10.0,10.0,38,0.00,,,0.00,Wunderground v.1.15,2013-02-21 17:50:00,
2013-02-21 13:00:00,52.8,24.5,30.13,NW,315,4.0,12.0,33,0.00,,,-99.99,WeatherLink 5.9.2,2013-02-21 18:00:00,
2013-02-21 13:01:00,50.9,25.5,30.01,WNW,298,6.0,6.0,37,0.00,,,0.00,Wunderground v.1.15,2013-02-21 18:01:00,
2013-02-21 13:11:00,51.5,26.1,30.00,WNW,291,6.0,6.0,37,0.00,,,0.00,Wunderground v.1.15,2013-02-21 18:11:00,
2013-02-21 13:20:00,51.8,27.6,30.00,NW,324,4.0,4.0,39,0.00,,,0.00,Wunderground v.1.15,2013-02-21 18:20:00,
2013-02-21 13:30:00,53.5,25.8,30.13,WNW,292,4.0,13.0,34,0.00,,,-99.99,WeatherLink 5.9.2,2013-02-21 18:30:00,
2013-02-21 13:31:00,52.2,26.7,29.99,NW,305,5.0,5.0,37,0.00,,,0.00,Wunderground v.1.15,2013-02-21 18:31:00,
2013-02-21 13:40:00,52.5,26.9,29.99,North,359,3.0,3.0,37,0.00,,,0.00,Wunderground v.1.15,2013-02-21 18:40:00,
2013-02-21 13:51:00,52.7,26.5,29.98,NNW,327,0.0,0.0,36,0.00,,,0.00,Wunderground v.1.15,2013-02-21 18:51:00,
2013-02-21 14:00:00,53.1,25.4,29.98,WNW,300,4.0,4.0,34,0.00,,,0.00,Wunderground v.1.15,2013-02-21 19:00:00,
2013-02-21 14:06:00,53.3,24.9,29.98,WNW,292,7.0,7.0,33,0.00,,,0.00,Wunderground v.1.15,2013-02-21 19:06:00,
2013-02-21 14:11:00,53.2,26.2,29.98,WNW,286,3.0,3.0,35,0.00,,,0.00,Wunderground v.1.15,2013-02-21 19:11:00,
2013-02-21 14:20:00,53.3,27.0,29.98,WNW,297,7.0,7.0,36,0.00,,,0.00,Wunderground v.1.15,2013-02-21 19:20:00,
2013-02-21 14:30:00,54.2,25.7,30.12,NW,315,3.0,9.0,33,0.00,,,-99.99,WeatherLink 5.9.2,2013-02-21 19:30:00,
2013-02-21 14:31:00,53.8,26.8,29.98,WNW,299,6.0,6.0,35,0.00,,,0.00,Wunderground v.1.15,2013-02-21 19:31:00,
2013-02-21 14:36:00,53.8,26.1,29.97,NW,310,5.0,6.0,34,0.00,,,0.00,Wunderground v.1.15,2013-02-21 19:36:00,
2013-02-21 14:46:00,53.8,25.3,29.97,NNE,24,3.0,3.0,33,0.00,,,0.00,Wunderground v.1.15,2013-02-21 19:46:00,
2013-02-21 14:55:00,53.9,25.4,29.97,NW,316,4.0,4.0,33,0.00,,,0.00,Wunderground v.1.15,2013-02-21 19:55:00,
2013-02-21 15:00:00,53.9,25.4,30.11,North,0,3.0,9.0,33,0.00,,,-99.99,WeatherLink 5.9.2,2013-02-21 20:00:00,
2013-02-21 15:01:00,54.0,25.5,29.97,WNW,300,2.0,2.0,33,0.00,,,0.00,Wunderground v.1.15,2013-02-21 20:01:00,
2013-02-21 15:11:00,54.2,25.7,29.97,NNW,348,5.0,5.0,33,0.00,,,0.00,Wunderground v.1.15,2013-02-21 20:11:00,
2013-02-21 15:20:00,54.3,26.5,29.96,WNW,300,1.0,1.0,34,0.00,,,0.00,Wunderground v.1.15,2013-02-21 20:20:00,
2013-02-21 15:26:00,54.2,25.7,29.97,NW,309,7.0,7.0,33,0.00,,,0.00,Wunderground v.1.15,2013-02-21 20:26:00,
2013-02-21 15:30:00,53.5,24.3,30.12,North,0,3.0,9.0,32,0.00,,,-99.99,WeatherLink 5.9.2,2013-02-21 20:30:00,
2013-02-21 15:36:00,54.2,25.7,29.96,WNW,301,6.0,6.0,33,0.00,,,0.00,Wunderground v.1.15,2013-02-21 20:36:00,
2013-02-21 15:41:00,53.9,25.4,29.96,NE,34,2.0,2.0,33,0.00,,,0.00,Wunderground v.1.15,2013-02-21 20:41:00,
2013-02-21 15:50:00,53.8,25.3,29.96,NW,319,0.0,0.0,33,0.00,,,0.00,Wunderground v.1.15,2013-02-21 20:50:00,
2013-02-21 15:56:00,53.7,25.2,29.96,North,7,0.0,0.0,33,0.00,,,0.00,Wunderground v.1.15,2013-02-21 20:56:00,
2013-02-21 16:00:00,52.2,23.9,30.13,NW,315,1.0,7.0,33,0.00,,,-99.99,WeatherLink 5.9.2,2013-02-21 21:00:00,
2013-02-21 16:05:00,53.8,25.3,29.95,NW,317,1.0,3.0,33,0.00,,,0.00,Wunderground v.1.15,2013-02-21 21:05:00,
2013-02-21 16:10:00,53.7,24.5,29.95,North,2,7.0,7.0,32,0.00,,,0.00,Wunderground v.1.15,2013-02-21 21:10:00,
2013-02-21 16:21:00,53.5,24.3,29.96,NW,321,0.0,0.0,32,0.00,,,0.00,Wunderground v.1.15,2013-02-21 21:21:00,
2013-02-21 16:30:00,50.0,29.5,30.14,NNW,337,0.0,3.0,45,0.00,,,-99.99,WeatherLink 5.9.2,2013-02-21 21:30:00,
2013-02-21 16:31:00,53.2,24.1,29.97,NNW,341,6.0,6.0,32,0.00,,,0.00,Wunderground v.1.15,2013-02-21 21:31:00,
2013-02-21 16:41:00,52.7,24.4,29.97,North,2,0.0,0.0,33,0.00,,,0.00,Wunderground v.1.15,2013-02-21 21:41:00,
2013-02-21 16:50:00,52.2,23.2,29.97,NNW,328,1.0,1.0,32,0.00,,,0.00,Wunderground v.1.15,2013-02-21 21:50:00,
2013-02-21 17:00:00,45.7,32.2,30.17,North,-999,0.0,0.0,59,0.00,,,-99.99,WeatherLink 5.9.2,2013-02-21 22:00:00,
2013-02-21 17:01:00,51.6,23.4,29.98,WNW,301,0.0,0.0,33,0.00,,,0.00,Wunderground v.1.15,2013-02-21 22:01:00,
2013-02-21 17:11:00,50.8,22.7,29.98,NNW,330,3.0,3.0,33,0.00,,,0.00,Wunderground v.1.15,2013-02-21 22:11:00,
2013-02-21 17:21:00,50.0,24.1,29.98,NNW,330,0.0,0.0,36,0.00,,,0.00,Wunderground v.1.15,2013-02-21 22:21:00,
2013-02-21 17:30:00,42.0,33.3,30.18,NNW,337,0.0,2.0,71,0.00,,,-99.99,WeatherLink 5.9.2,2013-02-21 22:30:00,
2013-02-21 17:31:00,48.9,25.6,29.98,NNW,330,0.0,0.0,40,0.00,,,0.00,Wunderground v.1.15,2013-02-21 22:31:00,
2013-02-21 17:41:00,47.2,29.0,29.99,NNW,330,0.0,0.0,49,0.00,,,0.00,Wunderground v.1.15,2013-02-21 22:41:00,
2013-02-21 17:51:00,45.5,30.3,29.99,NNW,330,0.0,0.0,55,0.00,,,0.00,Wunderground v.1.15,2013-02-21 22:51:00,
2013-02-21 18:00:00,44.0,29.7,30.00,NNW,330,0.0,0.0,57,0.00,,,0.00,Wunderground v.1.15,2013-02-21 23:00:00,
2013-02-21 18:06:00,43.4,30.0,30.01,NNW,330,0.0,0.0,59,0.00,,,0.00,Wunderground v.1.15,2013-02-21 23:06:00,
2013-02-21 18:11:00,42.9,30.0,30.02,NNW,330,0.0,0.0,60,0.00,,,0.00,Wunderground v.1.15,2013-02-21 23:11:00,
2013-02-21 18:21:00,41.9,30.6,30.02,NNW,330,0.0,0.0,64,0.00,,,0.00,Wunderground v.1.15,2013-02-21 23:21:00,
2013-02-21 18:30:00,41.1,31.3,30.02,NNW,330,0.0,0.0,68,0.00,,,0.00,Wunderground v.1.15,2013-02-21 23:30:00,
2013-02-21 18:36:00,40.9,32.6,30.03,ENE,65,0.0,0.0,72,0.00,,,0.00,Wunderground v.1.15,2013-02-21 23:36:00,
2013-02-21 18:45:00,40.3,32.0,30.03,ENE,65,0.0,0.0,72,0.00,,,0.00,Wunderground v.1.15,2013-02-21 23:45:00,
2013-02-21 18:56:00,39.5,31.6,30.04,ENE,65,0.0,0.0,73,0.00,,,0.00,Wunderground v.1.15,2013-02-21 23:56:00,
2013-02-21 19:00:00,36.4,31.7,30.23,North,-999,0.0,0.0,83,0.00,,,-99.99,WeatherLink 5.9.2,2013-02-22 00:00:00,
2013-02-21 19:05:00,38.7,31.8,30.04,ENE,65,0.0,0.0,76,0.00,,,0.00,Wunderground v.1.15,2013-02-22 00:05:00,
2013-02-21 19:10:00,38.5,31.6,30.04,ENE,65,0.0,0.0,76,0.00,,,0.00,Wunderground v.1.15,2013-02-22 00:10:00,
2013-02-21 19:21:00,38.0,31.7,30.05,ENE,65,0.0,0.0,78,0.00,,,0.00,Wunderground v.1.15,2013-02-22 00:21:00,
2013-02-21 19:30:00,37.4,31.2,30.05,ENE,65,0.0,0.0,78,0.00,,,0.00,Wunderground v.1.15,2013-02-22 00:30:00,
2013-02-21 19:40:00,36.9,31.6,30.06,ENE,65,0.0,0.0,81,0.00,,,0.00,Wunderground v.1.15,2013-02-22 00:40:00,
2013-02-21 19:51:00,36.3,31.0,30.06,ENE,65,0.0,0.0,81,0.00,,,0.00,Wunderground v.1.15,2013-02-22 00:51:00,
2013-02-21 20:00:00,35.9,31.2,30.07,ENE,65,0.0,0.0,83,0.00,,,0.00,Wunderground v.1.15,2013-02-22 01:00:00,
2013-02-21 20:06:00,35.8,31.1,30.07,ENE,65,0.0,0.0,83,0.00,,,0.00,Wunderground v.1.15,2013-02-22 01:06:00,
2013-02-21 20:16:00,35.2,30.6,30.08,ENE,65,0.0,0.0,83,0.00,,,0.00,Wunderground v.1.15,2013-02-22 01:16:00,
2013-02-21 20:25:00,35.0,29.8,30.08,ENE,65,0.0,0.0,81,0.00,,,0.00,Wunderground v.1.15,2013-02-22 01:25:00,
2013-02-21 20:30:00,36.1,31.1,30.24,ENE,67,0.0,2.0,82,0.00,,,-99.99,WeatherLink 5.9.2,2013-02-22 01:30:00,
2013-02-21 20:36:00,34.8,29.9,30.09,ENE,65,0.0,0.0,82,0.00,,,0.00,Wunderground v.1.15,2013-02-22 01:36:00,
2013-02-21 20:46:00,34.7,29.8,30.08,ENE,65,0.0,0.0,82,0.00,,,0.00,Wunderground v.1.15,2013-02-22 01:46:00,
2013-02-21 20:56:00,35.1,30.2,30.09,ENE,65,0.0,0.0,82,0.00,,,0.00,Wunderground v.1.15,2013-02-22 01:56:00,
2013-02-21 21:00:00,37.3,32.0,30.24,North,-999,0.0,0.0,81,0.00,,,-99.99,WeatherLink 5.9.2,2013-02-22 02:00:00,
2013-02-21 21:06:00,35.6,30.6,30.10,ENE,65,0.0,0.0,82,0.00,,,0.00,Wunderground v.1.15,2013-02-22 02:06:00,
2013-02-21 21:11:00,35.8,30.8,30.10,ENE,65,0.0,0.0,82,0.00,,,0.00,Wunderground v.1.15,2013-02-22 02:11:00,
2013-02-21 21:20:00,36.2,31.5,30.08,ENE,65,0.0,0.0,83,0.00,,,0.00,Wunderground v.1.15,2013-02-22 02:20:00,
2013-02-21 21:26:00,36.4,31.4,30.09,ENE,65,0.0,0.0,82,0.00,,,0.00,Wunderground v.1.15,2013-02-22 02:26:00,
2013-02-21 21:30:00,37.7,32.7,30.25,North,-999,0.0,1.0,82,0.00,,,-99.99,WeatherLink 5.9.2,2013-02-22 02:30:00,
2013-02-21 21:35:00,36.9,31.9,30.09,ENE,65,0.0,0.0,82,0.00,,,0.00,Wunderground v.1.15,2013-02-22 02:35:00,
2013-02-21 21:41:00,37.0,31.7,30.09,ENE,65,0.0,0.0,81,0.00,,,0.00,Wunderground v.1.15,2013-02-22 02:41:00,
2013-02-21 21:46:00,37.2,31.9,30.08,ENE,65,0.0,0.0,81,0.00,,,0.00,Wunderground v.1.15,2013-02-22 02:46:00,
2013-02-21 21:56:00,37.4,32.1,30.09,ENE,65,0.0,0.0,81,0.00,,,0.00,Wunderground v.1.15,2013-02-22 02:56:00,
2013-02-21 22:00:00,37.5,32.8,30.26,North,-999,0.0,0.0,83,0.00,,,-99.99,WeatherLink 5.9.2,2013-02-22 03:00:00,
2013-02-21 22:06:00,37.6,32.3,30.09,ENE,65,0.0,0.0,81,0.00,,,0.00,Wunderground v.1.15,2013-02-22 03:06:00,
2013-02-21 22:16:00,37.7,32.7,30.10,ENE,65,0.0,0.0,82,0.00,,,0.00,Wunderground v.1.15,2013-02-22 03:16:00,
2013-02-21 22:25:00,37.7,32.7,30.10,ENE,65,0.0,0.0,82,0.00,,,0.00,Wunderground v.1.15,2013-02-22 03:25:00,
2013-02-21 22:30:00,36.8,32.4,30.26,ENE,67,0.0,4.0,84,0.00,,,-99.99,WeatherLink 5.9.2,2013-02-22 03:30:00,
2013-02-21 22:31:00,37.7,32.7,30.10,ENE,65,0.0,0.0,82,0.00,,,0.00,Wunderground v.1.15,2013-02-22 03:31:00,
2013-02-21 22:41:00,37.6,32.6,30.10,ENE,65,0.0,0.0,82,0.00,,,0.00,Wunderground v.1.15,2013-02-22 03:41:00,
2013-02-21 22:46:00,37.5,32.5,30.10,ENE,65,0.0,0.0,82,0.00,,,0.00,Wunderground v.1.15,2013-02-22 03:46:00,
2013-02-21 22:56:00,37.4,32.4,30.10,ENE,65,0.0,0.0,82,0.00,,,0.00,Wunderground v.1.15,2013-02-22 03:56:00,
2013-02-21 23:00:00,37.0,32.0,30.26,NE,45,0.0,3.0,82,0.00,,,-99.99,WeatherLink 5.9.2,2013-02-22 04:00:00,
2013-02-21 23:05:00,37.1,32.4,30.11,ENE,65,0.0,0.0,83,0.00,,,0.00,Wunderground v.1.15,2013-02-22 04:05:00,
2013-02-21 23:11:00,36.9,32.2,30.11,ENE,65,0.0,0.0,83,0.00,,,0.00,Wunderground v.1.15,2013-02-22 04:11:00,
2013-02-21 23:21:00,36.7,32.3,30.11,ENE,65,0.0,0.0,84,0.00,,,0.00,Wunderground v.1.15,2013-02-22 04:21:00,
2013-02-21 23:30:00,36.7,32.3,30.10,ENE,65,0.0,0.0,84,0.00,,,0.00,Wunderground v.1.15,2013-02-22 04:30:00,
2013-02-21 23:36:00,36.9,32.5,30.10,NE,41,1.0,1.0,84,0.00,,,0.00,Wunderground v.1.15,2013-02-22 04:36:00,
2013-02-21 23:45:00,37.2,32.5,30.11,NE,52,0.0,0.0,83,0.00,,,0.00,Wunderground v.1.15,2013-02-22 04:45:00,
2013-02-21 23:51:00,37.2,32.2,30.12,NE,52,0.0,0.0,82,0.00,,,0.00,Wunderground v.1.15,2013-02-22 04:51:00,